Regional Weather Roundup
Issued by NWS

Home | Current Version | Previous Version | Text Only | Print | Product List | Glossary On
Versions: 1 2 3 4 5 6 7 8 9 10 11 12 13 14 15 16 17 18 19 20 21 22 23 24 25 26 27 28 29 30 31 32 33 34 35 36 37 38 39 40 41 42 43 44 45 46 47 48 49 50
000
ASUS45 KBOU 210507
RWRCO

WEATHER ROUNDUP FOR COLORADO
NATIONAL WEATHER SERVICE DENVER/BOULDER CO
1100 PM MDT WED SEP 20 2017

NOTE: "FAIR" INDICATES FEW OR NO CLOUDS BELOW 12000 FEET WITH NO
SIGNIFICANT WEATHER AND/OR OBSTRUCTIONS TO VISIBILITY.

COZ001>005-013-030-031-210600-
...NORTHWEST COLORADO...

CITY           SKY/WX    TMP DP  RH WIND       PRES   REMARKS
CRAIG          FAIR      46  36  68 CALM      29.84F
HAYDEN         FAIR      54  34  46 SE7       29.89F
MEEKER         FAIR      53  33  46 VRB3      29.87S
RABBIT EARS PA FAIR      46  27  46 S15G25    30.15S
STEAMBOAT SPGS FAIR      54  34  47 E6        29.91F
WALDEN         FAIR      41  28  60 SE10      30.00S
$$

COZ006>008-011-210600-
...WEST CENTRAL VALLEYS...

CITY           SKY/WX    TMP DP  RH WIND       PRES   REMARKS
GRAND JUNCTION FAIR      64  30  27 SE10      29.78F
MONTROSE       FAIR      62  30  29 SE10      29.91F
EAGLE          FAIR      56  29  35 E13       29.94F
RIFLE          FAIR      69  26  20 S15       29.83F
DELTA          FAIR      69  28  22 NE7       29.86F
NUCLA          FAIR      63  27  25 E3        29.96R
$$

COZ017>023-064>068-210600-
...SOUTHWEST COLORADO...

CITY           SKY/WX    TMP DP  RH WIND       PRES   REMARKS
DURANGO        FAIR      51  31  46 N7        30.05R
CORTEZ         FAIR      50  33  52 CALM      29.98R
PAGOSA SPRINGS FAIR      48  28  45 CALM      30.13R
TELLURIDE      FAIR      60  22  23 S17       30.17S
WOLF CREEK PAS FAIR      41  19  42 S26G37    30.37S
$$

COZ009-010-012-014-032>034-037-058>063-210600-
...CENTRAL COLORADO...

CITY           SKY/WX    TMP DP  RH WIND       PRES   REMARKS
ASPEN          FAIR      53  27  36 S9        30.03S
BUENA VISTA    FAIR      51  25  36 NE3       30.06R
COPPER MTN     FAIR      46   9  21 SW10G20   30.29F
BERTHOUD PASS  FAIR      39  32  75 W23G30    30.30F
COTTONWOOD PAS FAIR      59  23  25 W6        30.18S
GUNNISON       FAIR      45  31  58 N5        30.09R
KREMMLING      FAIR      61  25  25 S7        29.98F
LEADVILLE      FAIR      49  18  29 S13       30.15S
MONARCH PASS   FAIR      43  19  39 SW40G48   30.41S
SALIDA         FAIR      64  22  20 SW12G17   30.11R
SUNLIGHT       FAIR      43  23  45 S12G25    30.21S
WILKERSON PASS FAIR      43  23  45 S10G22    30.27R
$$

COZ069>075-210600-
...SAN LUIS VALLEY/SANGRE DE CRISTO MOUNTAINS...

CITY           SKY/WX    TMP DP  RH WIND       PRES   REMARKS
ALAMOSA        FAIR      49  26  41 SW12      30.09S
DEL NORTE      FAIR      48  25  40 W8        30.12S
LA VETA PASS   FAIR      54  19  26 S22G36    30.34R
SAGUACHE       FAIR      46  30  53 N7        30.11S
$$

COZ035-036-038>040-210600-
...NORTHERN COLORADO FRONT RANGE...

CITY           SKY/WX    TMP DP  RH WIND       PRES   REMARKS
DENVER INTL AP FAIR      60  30  32 SW10      29.85F
DMNS CITY PARK   N/A     57  38  50 W3        29.85S
AURORA         CLEAR     63  33  33 S20       29.86S
FRONT RANGE AP FAIR      63  34  34 S14       29.87F
ERIE MUNI ARPT FAIR      51  36  55 CALM      29.89S
BOULDER MUN AP FAIR      59  34  38 CALM      29.84S
CENTENNIAL     FAIR      63  33  32 S15G26    29.88F
BROOMFIELD     FAIR      61  32  33 CALM      29.86F
FORT COLLINS   FAIR      51  39  63 CALM      29.84R
LONGMONT       NOT AVBL
$$

COZ041-046-047-076>085-087-088-210600-
...PIKES PEAK/PALMER DIVIDE AND SOUTHERN FOOTHILLS...

CITY           SKY/WX    TMP DP  RH WIND       PRES   REMARKS
COLO. SPRINGS  FAIR      52  34  50 NE9       29.98S
A. F. ACADEMY  FAIR      54  32  43 SE7       29.99S
SCHRIEVER AFB  FAIR      52  33  49 N5        29.98S
CHEYENNE MTN   FAIR      56  32  39 N5        29.96F
ELLICOTT         N/A    N/A N/A N/A E3        29.96R
FALCON         FAIR      51  33  49 CALM      30.02S
FORT CARSON    FAIR      55  32  42 NW8       29.95R
LIMON          FAIR      56  35  45 SE13      29.92F
MONUMENT HILL  FAIR      52  34  50 S16       30.00S
CANON CITY     CLEAR     57  34  41 W3        29.93S
WALSENBURG     FAIR      61  30  31 CALM      29.97R
TRINIDAD       FAIR      58  36  43 W12       29.97S
$$

COZ042>045-048>051-090-091-210600-
...NORTHEAST COLORADO...

CITY           SKY/WX    TMP DP  RH WIND       PRES   REMARKS
GREELEY ARPT   FAIR      58  33  39 E5        29.83S
AKRON          FAIR      57  30  35 SE14      29.88F
BURLINGTON     FAIR      52  36  54 SE8       29.91F
WRAY           FAIR      55  32  41 SE7       29.89S
YUMA           FAIR      54  34  47 SE8       29.87F
STERLING       FAIR      57  34  41 S6        29.86S
HOLYOKE        NOT AVBL
FORT MORGAN    FAIR      55  30  38 E10       29.87F
$$

COZ086-089-092>099-210600-
...SOUTHEAST COLORADO...

CITY           SKY/WX    TMP DP  RH WIND       PRES   REMARKS
PUEBLO         FAIR      58  35  42 CALM      29.88R
LA JUNTA       FAIR      59  39  47 E9        29.87R
LAMAR          FAIR      54  38  54 E6        29.87S
SPRINGFIELD      N/A     52  45  77 S10       29.94S
$$



USA.gov is the U.S. government's official web portal to all federal, state and local government web resources and services.